SCP
0 0 0 0 0 0 0 0 0 0 0 0 0 0 0 0 0 0 0 0 0 0 0 0 0 0 0 0 0 0 0 0 0 0 0 0 0 0 0 0 0 0 0 0
0 0 0 0 0 0 0 0 0 0 0 0 0 0 0 0 0 0 0 0 0 0 0 0 0 0 0 0 0 0 0 0 0 0 0 0 0 0 0 0 0 0 0 0
0 0 0 0 0 0 0 0 0 0 0 0 0 0 0 0 0 0 0 0 0 0 0 0 0 0 0 0 0 0 0 0 0 0 0 0 0 0 0 0 0 0 0 0
0 0 0 0 0 0 0 0 0 0 0 0 0 0 0 0 0 0 0 0 0 0 0 0 0 0 0 0 0 0 0 0 0 0 0 0 0 0 0 0 0 0 0 0
0 0 0 0 0 0 0 0 0 0 0 0 0 0 0 0 0 0 0 0 0 0 0 0 0 0 0 0 0 0 0 0 0 0 0 0 0 0 0 0 0 0 0 0
0 0 0 0 0 0 0 0 0 0 0 0 0 0 0 0 0 0 0 0 0 0 0 0 0 0 0 0 0 0 0 0 0 0 0 0 0 0 0 0 0 0 0 0
0 0 0 0 0 0 0 0 0 0 0 0 0 0 0 0 0 0 0 0 0 0 0 0 0 0 0 0 0 0 0 0 0 0 0 0 0 0 0 0 0 0 0 0
0 0 0 0 0 0 0 0 0 0 0 0 0 0 0 0 0 0 0 0 0 0 0 0 0 0 0 0 0 0 0 0 0 0 0 0 0 0 0 0 0 0 0 0
0 0 0 0 0 0 0 0 0 0 0 0 0 0 0 0 0 0 0 0 0 0 0 0 0 0 0 0 0 0 0 0 0 0 0 0 0 0 0 0 0 0 0 0
0 0 0 0 0 0 0 0 0 0 0 0 0 0 0 0 0 0 0 0 0 0 0 0 0 0 0 0 0 0 0 0 0 0 0 0 0 0 0 0 0 0 0 0
0 0 0 0 0 0 0 0 0 0 0 0 0 0 0 0 0 0 0 0 0 0 0 0 0 0 0 0 0 0 0 0 0 0 0 0 0 0 0 0 0 0 0 0
0 0 0 0 0 0 0 0 0 0 0 0 0 0 0 0 0 0 0 0 0 0 0 0 0 0 0 0 0 0 0 0 0 0 0 0 0 0 0 0 0 0 0 0
0 0 0 0 0 0 0 0 0 0 0 0 0 0 0 0 0 0 0 0 0 0 0 0 0 0 0 0 0 0 0 0 0 0 0 0 0 0 0 0 0 0 0 0
0 0 0 0 0 0 0 0 0 0 0 0 0 0 0 0 0 0 0 0 0 0 0 0 0 0 0 0 0 0 0 0 0 0 0 0 0 0 0 0 0 0 0 0
0 0 0 0 0 0 0 0 0 0 0 0 0 0 0 0 0 0 0 0 0 0 0 0 0 0 0 0 0 0 0 0 0 0 0 0 0 0 0 0 0 0 0 0
0 0 0 0 0 0 0 0 0 0 0 0 0 0 0 0 0 0 0 0 0 0 0 0 0 0 0 0 0 0 0 0 0 0 0 0 0 0 0 0 0 0 0 0
0 0 0 0 0 0 0 0 0 0 0 0 0 0 0 0 0 0 0 0 0 0 0 0 0 0 0 0 0 0 0 0 0 0 0 0 0 0 0 0 0 0 0 0
0 0 0 0 0 0 0 0 0 0 0 0 0 0 0 0 0 0 0 0 0 0 0 0 0 0 0 0 0 0 0 0 0 0 0 0 0 0 0 0 0 0 0 0
0 0 0 0 0 0 0 0 0 0 0 0 0 0 0 0 0 0 0 0 0 0 0 0 0 0 0 0 0 0 0 0 0 0 0 0 0 0 0 0 0 0 0 0
0 0 0 0 0 0 0 0 0 0 0 0 0 0 0 0 0 0 0 0 0 0 0 0 0 0 0 0 0 0 0 0 0 0 0 0 0 0 0 0 0 0 0 0
0 0 0 0 0 0 0 0 0 0 0 0 0 0 0 0 0 0 0 0 0 0 0 0 0 0 0 0 0 0 0 0 0 0 0 0 0 0 0 0 0 0 0 0
0 0 0 0 0 0 0 0 0 0 0 0 0 0 0 0 0 0 0 0 0 0 0 0 0 0 0 0 0 0 0 0 0 0 0 0 0 0 0 0 0 0 0 0
0 0 0 0 0 0 0 0 0 0 0 0 0 0 0 0 0 0 0 0 0 0 0 0 0 0 0 0 0 0 0 0 0 0 0 0 0 0 0 0 0 0 0 0
0 0 0 0 0 0 0 0 0 0 0 0 0 0 0 0 0 0 0 0 0 0 0 0 0 0 0 0 0 0 0 0 0 0 0 0 0 0 0 0 0 0 0 0
0 0 0 0 0 0 0 0 0 0 0 0 0 0 0 0 0 0 0 0 0 0 0 0 0 0 0 0 0 0 0 0 0 0 0 0 0 0 0 0 0 0 0 0
0 0 0 0 0 0 0 0 0 0 0 0 0 0 0 0 0 0 0 0 0 0 0 0 0 0 0 0 0 0 0 0 0 0 0 0 0 0 0 0 0 0 0 0
Wind_Speed_500mb
1 4 8 18 3 4 6 15 13 11 2 7 13 14 17 30 31 31 29 26 21 12 9 6 12 16 19 21 23 27 32 37 42 49 51 50 46 45 52 53 56 60 62 62
1 1 8 12 5 3 4 18 10 10 0 4 7 15 18 34 34 35 35 31 23 15 10 6 7 12 15 23 24 25 31 35 39 41 43 43 39 39 48 52 53 56 60 63
2 8 7 6 8 9 11 6 10 6 10 9 4 15 22 27 34 35 30 31 28 21 15 8 4 6 16 19 24 24 29 35 38 41 44 45 42 42 47 49 51 54 55 58
9 5 6 7 9 9 6 11 15 17 12 4 12 9 17 26 24 30 38 31 28 25 18 12 6 8 13 18 21 22 26 33 36 39 44 44 45 48 47 51 52 51 51 54
5 9 4 5 7 3 9 3 10 8 5 5 8 1 12 30 31 32 43 45 40 32 24 15 8 6 11 18 19 23 26 31 34 36 39 40 44 44 46 48 49 49 51 51
7 4 9 6 8 4 18 16 11 9 4 2 14 14 10 16 38 28 47 53 45 34 23 15 7 2 8 14 17 22 24 28 32 34 37 40 43 45 46 47 50 52 53 55
8 6 5 22 15 2 6 6 4 5 3 10 8 3 16 14 12 32 46 55 46 37 26 20 12 6 6 12 15 18 22 26 29 34 36 40 41 42 44 47 49 52 54 57
12 7 16 13 2 12 14 5 6 12 7 6 6 13 12 8 23 27 52 58 46 38 34 24 16 11 6 10 14 18 22 26 32 34 35 37 38 39 40 43 45 47 50 52
13 6 7 10 6 5 8 7 2 11 4 5 10 10 8 8 9 15 47 54 52 42 32 28 21 14 8 11 13 17 22 29 34 34 33 35 36 37 39 39 41 43 44 46
8 11 3 1 3 7 1 8 7 3 5 9 7 3 17 14 21 17 27 50 48 42 38 32 25 17 11 12 14 17 22 29 35 33 35 36 39 40 40 40 40 41 41 42
7 10 6 9 15 15 4 3 1 1 6 10 5 11 11 27 33 37 45 54 54 53 46 37 30 21 16 15 14 18 23 31 33 36 39 40 42 45 46 46 45 43 42 40
7 10 8 11 5 7 4 13 12 8 11 3 4 13 4 10 33 47 50 59 58 58 48 42 34 23 20 18 16 19 23 30 35 41 43 44 45 46 47 48 49 49 46 41
15 5 7 3 2 2 11 13 10 7 4 9 9 13 4 4 5 45 53 58 60 59 52 47 38 29 26 21 18 20 25 29 36 41 39 39 39 42 46 49 50 48 45 43
13 6 13 16 10 12 12 18 26 13 6 11 28 22 9 13 17 27 54 61 65 64 58 51 42 34 32 25 23 20 24 29 33 31 31 35 39 43 47 50 52 51 47 42
8 12 6 3 7 6 8 10 27 25 46 18 36 35 51 27 28 54 62 64 67 64 61 55 47 41 37 29 23 20 23 26 24 22 27 32 38 42 46 49 50 48 45 40
4 6 6 7 7 9 6 13 20 43 28 36 46 46 7 31 52 50 66 73 72 71 69 61 51 46 40 32 23 18 20 21 16 19 22 29 36 42 46 47 48 48 43 38
13 12 7 8 1 1 6 34 42 37 16 39 34 54 18 13 35 62 75 85 86 81 74 67 60 52 41 31 22 17 17 14 11 14 21 27 33 39 44 46 46 46 44 38
12 12 6 6 2 18 3 5 36 37 42 45 38 42 13 27 59 65 75 91 86 80 74 67 61 56 42 33 23 16 15 11 7 11 18 24 30 36 41 42 44 44 44 41
6 9 6 8 11 21 26 14 19 20 23 50 54 56 21 18 29 39 60 72 81 80 72 66 57 51 40 32 24 17 17 11 3 7 13 19 27 33 37 41 43 46 44 41
5 4 5 8 8 17 2 4 17 18 22 39 47 47 24 41 14 21 63 66 69 69 71 67 59 52 44 33 24 21 19 13 5 2 8 16 24 29 35 39 42 44 46 44
8 2 27 22 14 19 14 23 28 11 18 5 43 45 54 23 34 11 43 68 69 69 69 65 60 50 40 34 27 27 22 16 9 4 4 12 18 25 32 35 38 42 45 45
23 23 13 13 16 40 30 11 21 12 12 11 12 37 66 53 41 33 50 68 75 71 71 67 62 54 43 36 33 31 25 20 13 7 2 8 13 20 26 30 34 39 42 45
17 18 18 26 19 9 79 25 64 20 12 16 19 26 55 64 51 54 60 68 74 73 74 68 61 52 45 40 39 34 29 23 17 11 4 4 9 15 21 26 30 34 38 42
9 13 9 9 21 24 60 51 33 47 19 13 18 26 49 67 57 61 64 73 78 77 75 69 63 54 48 45 43 36 32 27 20 15 8 2 4 9 16 22 27 30 34 37
13 29 22 15 10 2 37 74 62 48 49 28 23 31 45 55 61 63 71 77 78 76 72 66 58 52 49 49 45 38 34 30 24 20 12 5 2 6 11 16 22 26 30 34
17 21 25 28 31 37 28 68 87 75 65 51 38 39 44 54 63 68 70 73 73 73 71 65 56 52 52 50 45 42 38 34 27 23 16 10 6 5 8 12 16 21 25 26
Wind_Direction_500mb
308 175 185 194 201 27 272 135 151 73 109 227 219 153 182 201 204 190 186 190 189 202 259 317 330 346 358 347 354 351 358 5 5 8 9 10 4 360 0 6 8 9 8 5
184 140 75 55 71 226 250 128 98 64 99 328 195 211 192 193 214 203 198 198 188 189 201 266 322 347 341 332 346 349 1 0 3 6 6 6 2 359 358 360 3 6 8 8
117 63 97 138 151 160 21 138 159 128 156 265 184 260 199 198 211 207 207 203 191 199 199 228 301 340 311 334 347 353 358 353 357 358 359 356 356 358 358 357 359 2 4 7
64 135 171 155 121 24 109 340 102 132 154 222 174 278 199 197 208 204 214 210 199 199 203 218 252 326 324 346 343 345 347 350 352 352 353 356 357 358 358 356 358 358 1 4
128 139 217 164 49 1 146 143 112 145 218 39 194 286 271 180 210 209 203 203 202 196 201 215 246 342 327 346 344 337 343 347 348 348 351 355 356 356 354 356 0 2 2 3
85 13 23 85 85 82 146 113 93 72 54 342 215 174 233 181 218 202 198 198 196 192 198 211 244 346 330 338 335 338 344 345 343 347 349 352 354 354 353 357 359 2 2 1
125 116 58 144 87 30 294 150 54 348 9 225 19 236 260 206 177 198 189 186 190 187 195 197 205 220 293 327 335 338 344 340 340 344 346 348 352 353 354 358 1 0 2 2
151 243 164 196 260 175 201 205 181 206 195 211 113 231 254 343 158 186 185 178 184 187 194 206 200 214 276 310 325 334 335 334 335 338 340 342 346 350 352 355 356 358 359 1
164 112 34 13 360 13 175 194 59 97 54 54 217 267 300 161 137 136 151 170 178 184 196 206 202 215 256 285 310 321 326 326 329 335 337 339 341 343 345 346 347 349 351 356
149 106 170 118 311 21 9 158 92 336 199 258 254 242 243 209 200 181 173 175 180 191 197 203 209 218 241 262 293 307 315 321 326 331 333 334 334 335 334 335 334 335 339 344
128 110 117 134 215 178 152 218 223 70 185 203 264 242 208 207 190 190 192 187 187 193 202 205 208 216 233 249 275 294 309 320 324 326 327 327 328 325 324 323 322 321 323 328
184 108 160 194 66 14 251 205 173 150 229 225 153 266 39 360 184 188 189 190 192 198 203 205 209 215 224 241 261 284 305 315 321 322 327 329 330 331 332 329 321 313 307 311
186 172 91 341 5 5 220 195 201 104 59 207 153 261 31 342 103 187 184 191 190 193 194 201 205 212 222 234 250 274 298 313 319 323 332 339 344 348 347 345 341 335 320 303
147 156 177 190 151 129 194 198 195 145 143 210 221 249 227 220 211 190 186 187 190 191 198 201 203 209 220 228 246 273 297 313 319 329 342 348 348 351 351 348 344 343 338 325
135 188 133 236 113 146 199 192 191 197 225 202 242 227 242 208 202 201 188 186 186 192 202 205 204 208 219 227 241 268 296 310 319 335 349 352 352 354 355 351 347 345 345 339
184 184 99 312 166 161 201 252 226 218 232 250 257 264 159 222 207 191 189 187 192 202 205 205 207 210 217 227 236 266 293 303 318 338 357 360 356 357 358 354 351 349 348 345
149 134 127 243 192 171 278 218 223 224 193 228 239 246 150 195 182 194 192 197 202 207 206 205 207 212 218 224 237 263 284 282 312 345 6 4 359 1 0 358 355 354 355 351
151 143 135 169 57 267 257 180 221 230 232 229 250 255 184 216 215 217 213 209 208 209 208 207 208 211 212 219 233 252 258 259 303 3 12 5 3 6 4 2 2 3 3 360
26 135 158 171 199 293 292 191 182 182 240 229 233 248 187 174 191 224 219 219 219 214 211 209 210 210 207 215 230 233 232 238 267 20 15 9 8 9 7 8 10 10 10 11
39 17 179 134 198 242 125 138 132 104 278 225 213 234 146 143 192 231 214 213 210 211 210 205 203 201 204 214 219 216 216 219 188 51 21 15 14 12 12 13 15 16 17 16
136 131 211 211 230 271 178 161 148 133 254 172 210 220 164 191 208 189 201 200 204 202 200 198 198 200 202 210 208 207 207 204 182 163 40 25 18 12 17 17 17 21 22 24
168 169 189 202 216 259 145 114 179 206 181 201 212 209 196 194 193 194 189 193 194 191 188 191 192 195 201 204 203 203 201 197 184 180 98 37 20 16 17 19 22 23 23 25
194 186 171 191 212 168 177 192 203 202 201 217 228 198 201 188 181 183 186 186 186 187 184 188 193 195 198 200 200 200 202 195 189 190 177 50 18 15 13 16 23 23 23 21
245 178 194 111 233 223 203 211 217 210 209 236 226 201 202 192 184 183 183 181 183 184 186 188 191 196 199 197 200 198 200 195 192 196 198 176 14 13 10 8 15 18 18 19
176 156 182 250 256 87 227 220 222 217 222 224 211 203 197 193 187 186 181 181 185 186 188 192 195 199 199 199 200 199 199 199 195 202 209 218 296 357 3 6 6 10 10 12
186 179 187 215 192 211 218 226 222 221 217 213 209 195 201 198 191 186 184 185 187 189 190 192 196 201 200 201 199 200 199 201 201 209 215 224 250 311 343 1 2 360 1 4
Wind_Speed_850mb
1 4 8 18 3 4 6 15 13 11 2 7 13 14 17 30 31 31 29 26 21 12 9 6 12 16 19 21 23 27 32 37 42 49 51 50 46 45 52 53 56 60 62 62
1 1 8 12 5 3 4 18 10 10 0 4 7 15 18 34 34 35 35 31 23 15 10 6 7 12 15 23 24 25 31 35 39 41 43 43 39 39 48 52 53 56 60 63
2 8 7 6 8 9 11 6 10 6 10 9 4 15 22 27 34 35 30 31 28 21 15 8 4 6 16 19 24 24 29 35 38 41 44 45 42 42 47 49 51 54 55 58
9 5 6 7 9 9 6 11 15 17 12 4 12 9 17 26 24 30 38 31 28 25 18 12 6 8 13 18 21 22 26 33 36 39 44 44 45 48 47 51 52 51 51 54
5 9 4 5 7 3 9 3 10 8 5 5 8 1 12 30 31 32 43 45 40 32 24 15 8 6 11 18 19 23 26 31 34 36 39 40 44 44 46 48 49 49 51 51
7 4 9 6 8 4 18 16 11 9 4 2 14 14 10 16 38 28 47 53 45 34 23 15 7 2 8 14 17 22 24 28 32 34 37 40 43 45 46 47 50 52 53 55
8 6 5 22 15 2 6 6 4 5 3 10 8 3 16 14 12 32 46 55 46 37 26 20 12 6 6 12 15 18 22 26 29 34 36 40 41 42 44 47 49 52 54 57
12 7 16 13 2 12 14 5 6 12 7 6 6 13 12 8 23 27 52 58 46 38 34 24 16 11 6 10 14 18 22 26 32 34 35 37 38 39 40 43 45 47 50 52
13 6 7 10 6 5 8 7 2 11 4 5 10 10 8 8 9 15 47 54 52 42 32 28 21 14 8 11 13 17 22 29 34 34 33 35 36 37 39 39 41 43 44 46
8 11 3 1 3 7 1 8 7 3 5 9 7 3 17 14 21 17 27 50 48 42 38 32 25 17 11 12 14 17 22 29 35 33 35 36 39 40 40 40 40 41 41 42
7 10 6 9 15 15 4 3 1 1 6 10 5 11 11 27 33 37 45 54 54 53 46 37 30 21 16 15 14 18 23 31 33 36 39 40 42 45 46 46 45 43 42 40
7 10 8 11 5 7 4 13 12 8 11 3 4 13 4 10 33 47 50 59 58 58 48 42 34 23 20 18 16 19 23 30 35 41 43 44 45 46 47 48 49 49 46 41
15 5 7 3 2 2 11 13 10 7 4 9 9 13 4 4 5 45 53 58 60 59 52 47 38 29 26 21 18 20 25 29 36 41 39 39 39 42 46 49 50 48 45 43
13 6 13 16 10 12 12 18 26 13 6 11 28 22 9 13 17 27 54 61 65 64 58 51 42 34 32 25 23 20 24 29 33 31 31 35 39 43 47 50 52 51 47 42
8 12 6 3 7 6 8 10 27 25 46 18 36 35 51 27 28 54 62 64 67 64 61 55 47 41 37 29 23 20 23 26 24 22 27 32 38 42 46 49 50 48 45 40
4 6 6 7 7 9 6 13 20 43 28 36 46 46 7 31 52 50 66 73 72 71 69 61 51 46 40 32 23 18 20 21 16 19 22 29 36 42 46 47 48 48 43 38
13 12 7 8 1 1 6 34 42 37 16 39 34 54 18 13 35 62 75 85 86 81 74 67 60 52 41 31 22 17 17 14 11 14 21 27 33 39 44 46 46 46 44 38
12 12 6 6 2 18 3 5 36 37 42 45 38 42 13 27 59 65 75 91 86 80 74 67 61 56 42 33 23 16 15 11 7 11 18 24 30 36 41 42 44 44 44 41
6 9 6 8 11 21 26 14 19 20 23 50 54 56 21 18 29 39 60 72 81 80 72 66 57 51 40 32 24 17 17 11 3 7 13 19 27 33 37 41 43 46 44 41
5 4 5 8 8 17 2 4 17 18 22 39 47 47 24 41 14 21 63 66 69 69 71 67 59 52 44 33 24 21 19 13 5 2 8 16 24 29 35 39 42 44 46 44
8 2 27 22 14 19 14 23 28 11 18 5 43 45 54 23 34 11 43 68 69 69 69 65 60 50 40 34 27 27 22 16 9 4 4 12 18 25 32 35 38 42 45 45
23 23 13 13 16 40 30 11 21 12 12 11 12 37 66 53 41 33 50 68 75 71 71 67 62 54 43 36 33 31 25 20 13 7 2 8 13 20 26 30 34 39 42 45
17 18 18 26 19 9 79 25 64 20 12 16 19 26 55 64 51 54 60 68 74 73 74 68 61 52 45 40 39 34 29 23 17 11 4 4 9 15 21 26 30 34 38 42
9 13 9 9 21 24 60 51 33 47 19 13 18 26 49 67 57 61 64 73 78 77 75 69 63 54 48 45 43 36 32 27 20 15 8 2 4 9 16 22 27 30 34 37
13 29 22 15 10 2 37 74 62 48 49 28 23 31 45 55 61 63 71 77 78 76 72 66 58 52 49 49 45 38 34 30 24 20 12 5 2 6 11 16 22 26 30 34
17 21 25 28 31 37 28 68 87 75 65 51 38 39 44 54 63 68 70 73 73 73 71 65 56 52 52 50 45 42 38 34 27 23 16 10 6 5 8 12 16 21 25 26
Wind_Direction_850mb
308 175 185 194 201 27 272 135 151 73 109 227 219 153 182 201 204 190 186 190 189 202 259 317 330 346 358 347 354 351 358 5 5 8 9 10 4 360 0 6 8 9 8 5
184 140 75 55 71 226 250 128 98 64 99 328 195 211 192 193 214 203 198 198 188 189 201 266 322 347 341 332 346 349 1 0 3 6 6 6 2 359 358 360 3 6 8 8
117 63 97 138 151 160 21 138 159 128 156 265 184 260 199 198 211 207 207 203 191 199 199 228 301 340 311 334 347 353 358 353 357 358 359 356 356 358 358 357 359 2 4 7
64 135 171 155 121 24 109 340 102 132 154 222 174 278 199 197 208 204 214 210 199 199 203 218 252 326 324 346 343 345 347 350 352 352 353 356 357 358 358 356 358 358 1 4
128 139 217 164 49 1 146 143 112 145 218 39 194 286 271 180 210 209 203 203 202 196 201 215 246 342 327 346 344 337 343 347 348 348 351 355 356 356 354 356 0 2 2 3
85 13 23 85 85 82 146 113 93 72 54 342 215 174 233 181 218 202 198 198 196 192 198 211 244 346 330 338 335 338 344 345 343 347 349 352 354 354 353 357 359 2 2 1
125 116 58 144 87 30 294 150 54 348 9 225 19 236 260 206 177 198 189 186 190 187 195 197 205 220 293 327 335 338 344 340 340 344 346 348 352 353 354 358 1 0 2 2
151 243 164 196 260 175 201 205 181 206 195 211 113 231 254 343 158 186 185 178 184 187 194 206 200 214 276 310 325 334 335 334 335 338 340 342 346 350 352 355 356 358 359 1
164 112 34 13 360 13 175 194 59 97 54 54 217 267 300 161 137 136 151 170 178 184 196 206 202 215 256 285 310 321 326 326 329 335 337 339 341 343 345 346 347 349 351 356
149 106 170 118 311 21 9 158 92 336 199 258 254 242 243 209 200 181 173 175 180 191 197 203 209 218 241 262 293 307 315 321 326 331 333 334 334 335 334 335 334 335 339 344
128 110 117 134 215 178 152 218 223 70 185 203 264 242 208 207 190 190 192 187 187 193 202 205 208 216 233 249 275 294 309 320 324 326 327 327 328 325 324 323 322 321 323 328
184 108 160 194 66 14 251 205 173 150 229 225 153 266 39 360 184 188 189 190 192 198 203 205 209 215 224 241 261 284 305 315 321 322 327 329 330 331 332 329 321 313 307 311
186 172 91 341 5 5 220 195 201 104 59 207 153 261 31 342 103 187 184 191 190 193 194 201 205 212 222 234 250 274 298 313 319 323 332 339 344 348 347 345 341 335 320 303
147 156 177 190 151 129 194 198 195 145 143 210 221 249 227 220 211 190 186 187 190 191 198 201 203 209 220 228 246 273 297 313 319 329 342 348 348 351 351 348 344 343 338 325
135 188 133 236 113 146 199 192 191 197 225 202 242 227 242 208 202 201 188 186 186 192 202 205 204 208 219 227 241 268 296 310 319 335 349 352 352 354 355 351 347 345 345 339
184 184 99 312 166 161 201 252 226 218 232 250 257 264 159 222 207 191 189 187 192 202 205 205 207 210 217 227 236 266 293 303 318 338 357 360 356 357 358 354 351 349 348 345
149 134 127 243 192 171 278 218 223 224 193 228 239 246 150 195 182 194 192 197 202 207 206 205 207 212 218 224 237 263 284 282 312 345 6 4 359 1 0 358 355 354 355 351
151 143 135 169 57 267 257 180 221 230 232 229 250 255 184 216 215 217 213 209 208 209 208 207 208 211 212 219 233 252 258 259 303 3 12 5 3 6 4 2 2 3 3 360
26 135 158 171 199 293 292 191 182 182 240 229 233 248 187 174 191 224 219 219 219 214 211 209 210 210 207 215 230 233 232 238 267 20 15 9 8 9 7 8 10 10 10 11
39 17 179 134 198 242 125 138 132 104 278 225 213 234 146 143 192 231 214 213 210 211 210 205 203 201 204 214 219 216 216 219 188 51 21 15 14 12 12 13 15 16 17 16
136 131 211 211 230 271 178 161 148 133 254 172 210 220 164 191 208 189 201 200 204 202 200 198 198 200 202 210 208 207 207 204 182 163 40 25 18 12 17 17 17 21 22 24
168 169 189 202 216 259 145 114 179 206 181 201 212 209 196 194 193 194 189 193 194 191 188 191 192 195 201 204 203 203 201 197 184 180 98 37 20 16 17 19 22 23 23 25
194 186 171 191 212 168 177 192 203 202 201 217 228 198 201 188 181 183 186 186 186 187 184 188 193 195 198 200 200 200 202 195 189 190 177 50 18 15 13 16 23 23 23 21
245 178 194 111 233 223 203 211 217 210 209 236 226 201 202 192 184 183 183 181 183 184 186 188 191 196 199 197 200 198 200 195 192 196 198 176 14 13 10 8 15 18 18 19
176 156 182 250 256 87 227 220 222 217 222 224 211 203 197 193 187 186 181 181 185 186 188 192 195 199 199 199 200 199 199 199 195 202 209 218 296 357 3 6 6 10 10 12
186 179 187 215 192 211 218 226 222 221 217 213 209 195 201 198 191 186 184 185 187 189 190 192 196 201 200 201 199 200 199 201 201 209 215 224 250 311 343 1 2 360 1 4